Pittsburgh Allegheny Co., PA

12:39 PM EST on November 13, 2019 (GMT -0500)
Allegheny County

Weather History for KAGC - September, 2019

Change the Weather History Date:

Sunday, September 22, 2019

  Actual Average Record
Temperature  
Mean Temperature 76 °F -  
Max Temperature 88 °F 72 °F 89 °F (2010)
Min Temperature 64 °F 54 °F 39 °F (1991)
Cooling Degree Days 10    
Growing Degree Days 26 (Base 50)    
Moisture  
Dew Point 63 °F    
Average Humidity 68    
Maximum Humidity 97    
Minimum Humidity 41    
Precipitation  
Precipitation 0.00 in - - ()
Sea Level Pressure  
Sea Level Pressure 30.10 in    
Wind  
Wind Speed 7 mph (SSW)    
Max Wind Speed 14 mph    
Max Gust Speed 21 mph    
Visibility 9 miles    
Events      
Averages and records for this station are not official NWS values.
T = Trace of Precipitation, MM = Missing Value Source: NWS Daily Summary

Daily Weather History Graph

Daily Weather History Graph

Search for Another Location

Airport or City:

Astronomy

Sep. 22, 2019 Rise Set
Actual Time 7:07 AM EDT 7:17 PM EDT
Civil Twilight 6:39 AM EDT 7:44 PM EDT
Nautical Twilight 6:08 AM EDT 8:16 PM EDT
Astronomical Twilight 5:35 AM EDT 8:48 PM EDT
Moon No Moon Rise 3:12 PM EDT (9/22)
Length of Visible Light 13h 04m
Length of Day
12h 10m
Last Quarter, 44% of the Moon is Illuminated
Sep 22
Last Quarter
Sep 28
New
Oct 5
First Quarter
Oct 13
Full
Oct 21
Last Quarter

Hourly Weather History & Observations

Time (EDT) Temp. Heat Index Dew Point Humidity Pressure Visibility Wind Dir Wind Speed Gust Speed Precip Events Conditions
12:53 AM 69.1 °F - 64.9 °F 87% 30.18 in 10.0 mi SSE 5.8 mph - N/A   Clear
1:53 AM 68.0 °F - 64.0 °F 87% 30.17 in 10.0 mi South 5.8 mph - N/A   Clear
2:53 AM 66.9 °F - 64.9 °F 93% 30.17 in 7.0 mi South 5.8 mph - N/A   Clear
3:53 AM 68.0 °F - 64.0 °F 87% 30.16 in 9.0 mi South 6.9 mph - N/A   Clear
4:53 AM 68.0 °F - 64.0 °F 87% 30.17 in 10.0 mi SSW 8.1 mph - N/A   Clear
5:53 AM 64.9 °F - 64.0 °F 97% 30.17 in 5.0 mi South 6.9 mph - N/A   Clear
6:53 AM 64.9 °F - 64.0 °F 97% 30.17 in 4.0 mi SSE 6.9 mph - N/A   Clear
7:53 AM 66.0 °F - 64.0 °F 93% 30.17 in 5.0 mi South 6.9 mph - N/A   Clear
8:53 AM 69.1 °F - 64.9 °F 87% 30.18 in 6.0 mi South 5.8 mph - N/A   Haze
9:53 AM 73.0 °F - 66.0 °F 79% 30.17 in 10.0 mi SSW 8.1 mph - N/A   Haze
10:53 AM 78.1 °F - 66.0 °F 66% 30.16 in 10.0 mi South 8.1 mph - N/A   Haze
11:53 AM 82.9 °F 85.0 °F 66.0 °F 56% 30.14 in 10.0 mi SW 9.2 mph - N/A   Clear
12:53 PM 82.9 °F 84.0 °F 63.0 °F 51% 30.12 in 10.0 mi SW 6.9 mph - N/A   Partly Cloudy
1:53 PM 84.0 °F 84.5 °F 62.1 °F 47% 30.09 in 10.0 mi SSW 9.2 mph - N/A   Scattered Clouds
2:53 PM 86.0 °F 86.3 °F 62.1 °F 44% 30.06 in 10.0 mi SSW 13.8 mph 20.7 mph N/A   Mostly Cloudy
3:53 PM 87.1 °F 87.0 °F 61.0 °F 41% 30.04 in 10.0 mi South 13.8 mph 19.6 mph N/A   Partly Cloudy
4:53 PM 84.9 °F 84.8 °F 60.1 °F 43% 30.02 in 10.0 mi SSW 10.4 mph - N/A   Partly Cloudy
5:53 PM 84.9 °F 85.0 °F 61.0 °F 44% 30.02 in 10.0 mi SSW 11.5 mph - N/A   Partly Cloudy
6:53 PM 82.9 °F 83.3 °F 61.0 °F 47% 30.01 in 10.0 mi SSW 8.1 mph - N/A   Clear
7:53 PM 80.1 °F 81.1 °F 61.0 °F 52% 30.01 in 10.0 mi SSW 5.8 mph - N/A   Clear
8:53 PM 78.1 °F - 60.1 °F 54% 30.01 in 10.0 mi SSW 5.8 mph - N/A   Clear
9:53 PM 77.0 °F - 61.0 °F 58% 30.00 in 10.0 mi South 5.8 mph - N/A   Clear
10:53 PM 73.9 °F - 60.1 °F 62% 29.99 in 10.0 mi South 6.9 mph - N/A   Clear
11:53 PM 72.0 °F - 61.0 °F 68% 29.98 in 10.0 mi South 6.9 mph - N/A   Clear